TimeEDT,TemperatureF,Dew PointF,Humidity,Sea Level PressureIn,VisibilityMPH,Wind Direction,Wind SpeedMPH,Gust SpeedMPH,PrecipitationIn,Events,Conditions,WindDirDegrees,DateUTC
12:15 AM,50.0,33.8,54,29.88,10.0,West,13.8,20.7,N/A,,Clear,270,2012-10-05 04:15:00
12:35 AM,48.2,32.0,54,29.88,10.0,West,10.4,17.3,N/A,,Clear,260,2012-10-05 04:35:00
12:54 AM,48.2,32.0,54,29.88,10.0,West,8.1,18.4,N/A,,Clear,270,2012-10-05 04:54:00
1:15 AM,48.2,32.0,54,29.89,10.0,West,10.4,-,N/A,,Clear,270,2012-10-05 05:15:00
1:35 AM,46.4,32.0,57,29.89,10.0,West,10.4,17.3,N/A,,Clear,270,2012-10-05 05:35:00
1:55 AM,46.4,30.2,53,29.89,10.0,West,9.2,-,N/A,,Clear,260,2012-10-05 05:55:00
2:15 AM,46.4,30.2,53,29.90,10.0,WSW,6.9,-,N/A,,Clear,250,2012-10-05 06:15:00
2:34 AM,44.6,32.0,61,29.91,10.0,West,8.1,-,N/A,,Clear,260,2012-10-05 06:34:00
2:55 AM,44.6,30.2,57,29.91,10.0,West,10.4,16.1,N/A,,Clear,260,2012-10-05 06:55:00
3:15 AM,44.6,30.2,57,29.90,10.0,WSW,9.2,19.6,N/A,,Clear,250,2012-10-05 07:15:00
3:34 AM,44.6,30.2,57,29.89,10.0,West,11.5,19.6,N/A,,Clear,260,2012-10-05 07:34:00
3:55 AM,44.6,30.2,57,29.88,10.0,West,11.5,18.4,N/A,,Clear,260,2012-10-05 07:55:00
4:15 AM,44.6,30.2,57,29.88,10.0,WSW,10.4,17.3,N/A,,Clear,250,2012-10-05 08:15:00
4:35 AM,42.8,30.2,61,29.88,10.0,West,13.8,23.0,N/A,,Clear,260,2012-10-05 08:35:00
4:55 AM,42.8,30.2,61,29.89,10.0,WSW,9.2,18.4,N/A,,Clear,250,2012-10-05 08:55:00
5:15 AM,42.8,30.2,61,29.89,10.0,West,10.4,20.7,N/A,,Clear,260,2012-10-05 09:15:00
5:35 AM,42.8,28.4,57,29.90,10.0,WSW,9.2,19.6,N/A,,Clear,250,2012-10-05 09:35:00
5:55 AM,42.8,28.4,57,29.90,10.0,WSW,11.5,21.9,N/A,,Clear,250,2012-10-05 09:55:00
6:14 AM,42.8,28.4,57,29.90,10.0,West,13.8,20.7,N/A,,Clear,260,2012-10-05 10:14:00
6:35 AM,41.0,28.4,61,29.90,10.0,WSW,9.2,-,N/A,,Clear,250,2012-10-05 10:35:00
6:55 AM,41.0,28.4,61,29.90,10.0,West,9.2,18.4,N/A,,Clear,260,2012-10-05 10:55:00
7:14 AM,39.2,28.4,65,29.90,10.0,West,11.5,18.4,N/A,,Clear,260,2012-10-05 11:14:00
7:35 AM,39.2,28.4,65,29.90,10.0,West,9.2,20.7,N/A,,Clear,260,2012-10-05 11:35:00
7:55 AM,39.2,28.4,65,29.91,10.0,West,6.9,17.3,N/A,,Clear,270,2012-10-05 11:55:00
8:14 AM,39.2,28.4,65,29.91,10.0,WSW,10.4,16.1,N/A,,Clear,240,2012-10-05 12:14:00
8:35 AM,41.0,28.4,61,29.91,10.0,WSW,8.1,16.1,N/A,,Clear,250,2012-10-05 12:35:00
8:54 AM,42.8,28.4,57,29.91,10.0,West,8.1,-,N/A,,Clear,260,2012-10-05 12:54:00
9:15 AM,42.8,28.4,57,29.91,10.0,WSW,9.2,-,N/A,,Clear,250,2012-10-05 13:15:00
9:35 AM,44.6,28.4,53,29.91,10.0,WSW,10.4,18.4,N/A,,Clear,250,2012-10-05 13:35:00
9:55 AM,44.6,28.4,53,29.91,10.0,WSW,10.4,19.6,N/A,,Scattered Clouds,250,2012-10-05 13:55:00
10:15 AM,44.6,26.6,49,29.91,10.0,West,13.8,20.7,N/A,,Scattered Clouds,270,2012-10-05 14:15:00
10:34 AM,44.6,28.4,53,29.91,10.0,West,10.4,17.3,N/A,,Mostly Cloudy,270,2012-10-05 14:34:00
10:55 AM,46.4,28.4,50,29.91,10.0,WSW,10.4,18.4,N/A,,Overcast,250,2012-10-05 14:55:00
11:15 AM,44.6,26.6,49,29.91,10.0,West,12.7,19.6,N/A,,Mostly Cloudy,270,2012-10-05 15:15:00
11:34 AM,46.4,28.4,50,29.91,10.0,WSW,9.2,17.3,N/A,,Scattered Clouds,250,2012-10-05 15:34:00
11:55 AM,46.4,28.4,50,29.90,10.0,West,10.4,20.7,N/A,,Scattered Clouds,280,2012-10-05 15:55:00
12:14 PM,46.4,28.4,50,29.90,10.0,WSW,11.5,16.1,N/A,,Mostly Cloudy,240,2012-10-05 16:14:00
12:34 PM,48.2,28.4,46,29.90,10.0,SW,9.2,16.1,N/A,,Mostly Cloudy,230,2012-10-05 16:34:00
12:55 PM,48.2,28.4,46,29.90,10.0,West,10.4,17.3,N/A,,Mostly Cloudy,260,2012-10-05 16:55:00
1:14 PM,48.2,28.4,46,29.89,10.0,West,10.4,-,N/A,,Scattered Clouds,260,2012-10-05 17:14:00
1:35 PM,50.0,26.6,40,29.89,10.0,West,9.2,18.4,N/A,,Scattered Clouds,260,2012-10-05 17:35:00
1:55 PM,51.8,26.6,38,29.88,10.0,SW,13.8,20.7,N/A,,Mostly Cloudy,230,2012-10-05 17:55:00
2:35 PM,50.0,26.6,40,29.87,10.0,West,8.1,-,N/A,,Mostly Cloudy,260,2012-10-05 18:35:00
2:54 PM,48.2,26.6,43,29.87,10.0,West,8.1,16.1,N/A,,Overcast,270,2012-10-05 18:54:00
3:15 PM,50.0,26.6,40,29.86,10.0,West,8.1,-,N/A,,Overcast,260,2012-10-05 19:15:00
3:35 PM,51.8,26.6,38,29.86,10.0,WSW,8.1,17.3,N/A,,Overcast,250,2012-10-05 19:35:00
3:54 PM,50.0,26.6,40,29.86,10.0,West,9.2,18.4,N/A,,Overcast,270,2012-10-05 19:54:00
4:15 PM,50.0,26.6,40,29.86,10.0,West,13.8,18.4,N/A,,Overcast,280,2012-10-05 20:15:00
4:34 PM,50.0,26.6,40,29.87,10.0,West,11.5,19.6,N/A,,Overcast,280,2012-10-05 20:34:00
4:55 PM,48.2,26.6,43,29.87,10.0,West,12.7,19.6,N/A,,Overcast,280,2012-10-05 20:55:00
5:15 PM,48.2,26.6,43,29.87,10.0,West,11.5,19.6,N/A,,Overcast,270,2012-10-05 21:15:00
5:34 PM,48.2,26.6,43,29.87,10.0,West,15.0,21.9,N/A,,Mostly Cloudy,270,2012-10-05 21:34:00
5:55 PM,46.4,26.6,46,29.87,10.0,WNW,11.5,21.9,N/A,,Mostly Cloudy,290,2012-10-05 21:55:00
6:15 PM,46.4,26.6,46,29.88,10.0,WNW,9.2,18.4,N/A,,Overcast,290,2012-10-05 22:15:00
6:35 PM,44.6,26.6,49,29.88,10.0,West,12.7,-,N/A,,Overcast,280,2012-10-05 22:35:00
7:15 PM,44.6,26.6,49,29.88,10.0,West,16.1,25.3,N/A,,Overcast,280,2012-10-05 23:15:00
7:35 PM,44.6,26.6,49,29.88,10.0,West,12.7,21.9,N/A,,Overcast,270,2012-10-05 23:35:00
7:54 PM,44.6,26.6,49,29.89,10.0,West,12.7,24.2,N/A,,Overcast,270,2012-10-05 23:54:00
8:15 PM,42.8,26.6,53,29.88,10.0,West,13.8,19.6,N/A,,Mostly Cloudy,270,2012-10-06 00:15:00
8:35 PM,42.8,26.6,53,29.88,10.0,West,11.5,17.3,N/A,,Scattered Clouds,280,2012-10-06 00:35:00
8:54 PM,42.8,26.6,53,29.88,10.0,West,8.1,-,N/A,,Clear,270,2012-10-06 00:54:00
9:15 PM,41.0,26.6,57,29.88,10.0,West,8.1,-,N/A,,Clear,260,2012-10-06 01:15:00
9:35 PM,41.0,26.6,57,29.88,10.0,WSW,8.1,-,N/A,,Scattered Clouds,250,2012-10-06 01:35:00
9:55 PM,41.0,26.6,57,29.88,10.0,WSW,4.6,-,N/A,,Overcast,250,2012-10-06 01:55:00
10:15 PM,41.0,26.6,57,29.87,10.0,WSW,6.9,-,N/A,,Overcast,250,2012-10-06 02:15:00
10:34 PM,41.0,26.6,57,29.87,10.0,WSW,8.1,-,N/A,,Overcast,250,2012-10-06 02:34:00
10:55 PM,42.8,26.6,53,29.86,10.0,WSW,9.2,-,N/A,,Overcast,250,2012-10-06 02:55:00
11:34 PM,41.0,26.6,57,29.85,10.0,WSW,9.2,-,N/A,,Overcast,250,2012-10-06 03:34:00
11:55 PM,41.0,26.6,57,29.84,10.0,West,6.9,18.4,N/A,,Overcast,260,2012-10-06 03:55:00